Location: Dumpton Point
(51.3500°N, 1.4433°E)
Time: 08:15:45
(UTC+00:00)

STARLINK-1214 - Pass Details

Date: 09 April 2020
Orbit: 377 x 382 km, 53.0° (Epoch: 02 June)

Event Time Altitude Azimuth Distance (km) Brightness Sun altitude
Rises 19:56:31 0° 288° (WNW) 2,326 8.7 -11.7°
Reaches altitude 10° 19:58:42 10° 278° (W) 1,465 7.0 -12.0°
Maximum altitude 20:01:41 33° 213° (SSW) 709 4.2 -12.4°
Enters shadow 20:03:38 17° 157° (SSE) 1,094 4.7 -12.7°
